Total_Precipitation_Accumulation
0.00 0.00 0.00 0.00 0.00 0.00 0.00 0.00 0.00 0.00 0.00 0.00 0.00 0.00 0.00 0.00 0.00 0.00 0.01 0.02 0.00 0.00 0.00 0.00 0.00 0.00 0.00 0.00 0.00 0.00 0.00 0.01 0.00 0.02 0.00 0.00 0.10 0.01 0.00 0.01 0.02 0.02 0.00 0.00 0.00 0.00 0.00 0.00 0.00
0.00 0.00 0.00 0.00 0.00 0.00 0.00 0.00 0.00 0.00 0.00 0.00 0.00 0.00 0.00 0.00 0.00 0.00 0.01 0.00 0.00 0.00 0.00 0.00 0.00 0.00 0.00 0.00 0.00 0.00 0.00 0.01 0.00 0.02 0.00 0.01 0.06 0.00 0.02 0.01 0.01 0.01 0.00 0.00 0.00 0.00 0.00 0.00 0.00
0.00 0.00 0.00 0.00 0.00 0.00 0.00 0.00 0.00 0.00 0.00 0.00 0.00 0.00 0.00 0.00 0.00 0.00 0.00 0.00 0.00 0.00 0.00 0.00 0.00 0.00 0.00 0.00 0.00 0.00 0.00 0.01 0.00 0.01 0.03 0.03 0.06 0.03 0.04 0.01 0.01 0.01 0.00 0.00 0.00 0.00 0.00 0.00 0.00
0.00 0.00 0.00 0.00 0.00 0.00 0.00 0.00 0.00 0.00 0.00 0.00 0.00 0.00 0.00 0.00 0.00 0.00 0.00 0.00 0.00 0.00 0.00 0.00 0.00 0.00 0.00 0.00 0.00 0.00 0.00 0.01 0.01 0.01 0.03 0.04 0.05 0.06 0.05 0.01 0.00 0.00 0.00 0.00 0.00 0.00 0.00 0.00 0.00
0.00 0.00 0.00 0.00 0.00 0.00 0.00 0.00 0.00 0.00 0.00 0.00 0.00 0.00 0.00 0.01 0.01 0.00 0.00 0.00 0.00 0.00 0.00 0.00 0.01 0.01 0.00 0.00 0.00 0.01 0.01 0.01 0.02 0.03 0.03 0.02 0.05 0.08 0.04 0.00 0.00 0.00 0.00 0.00 0.00 0.00 0.00 0.00 0.00
0.00 0.00 0.00 0.00 0.00 0.00 0.00 0.00 0.00 0.00 0.00 0.00 0.00 0.00 0.00 0.03 0.08 0.07 0.02 0.01 0.01 0.00 0.03 0.02 0.04 0.08 0.02 0.00 0.00 0.01 0.02 0.01 0.03 0.04 0.06 0.05 0.05 0.05 0.01 0.00 0.00 0.00 0.00 0.00 0.00 0.00 0.00 0.00 0.00
0.00 0.00 0.00 0.00 0.00 0.00 0.00 0.00 0.00 0.00 0.00 0.00 0.00 0.00 0.00 0.01 0.06 0.10 0.09 0.08 0.09 0.13 0.16 0.18 0.09 0.13 0.05 0.01 0.00 0.01 0.03 0.02 0.03 0.06 0.12 0.06 0.03 0.02 0.00 0.00 0.00 0.00 0.00 0.00 0.00 0.00 0.00 0.00 0.00
0.00 0.00 0.00 0.00 0.00 0.00 0.00 0.00 0.00 0.00 0.00 0.00 0.00 0.00 0.00 0.00 0.04 0.12 0.18 0.19 0.17 0.18 0.19 0.18 0.16 0.12 0.05 0.02 0.01 0.02 0.05 0.02 0.03 0.06 0.09 0.02 0.00 0.00 0.00 0.00 0.00 0.00 0.00 0.00 0.00 0.00 0.00 0.00 0.00
0.00 0.00 0.00 0.00 0.00 0.00 0.00 0.00 0.00 0.00 0.00 0.00 0.00 0.00 0.00 0.01 0.04 0.05 0.06 0.07 0.10 0.13 0.17 0.30 0.29 0.16 0.11 0.05 0.02 0.02 0.11 0.06 0.03 0.04 0.04 0.02 0.00 0.00 0.00 0.00 0.00 0.00 0.01 0.00 0.00 0.00 0.00 0.00 0.00
0.00 0.00 0.00 0.00 0.00 0.00 0.00 0.00 0.00 0.00 0.00 0.00 0.00 0.00 0.00 0.01 0.02 0.02 0.02 0.01 0.01 0.04 0.09 0.18 0.36 0.25 0.13 0.07 0.06 0.06 0.15 0.14 0.02 0.02 0.03 0.01 0.00 0.00 0.00 0.00 0.00 0.01 0.01 0.00 0.00 0.00 0.00 0.00 0.00
0.00 0.00 0.00 0.00 0.00 0.00 0.00 0.00 0.00 0.00 0.00 0.00 0.00 0.00 0.00 0.00 0.01 0.01 0.01 0.02 0.01 0.00 0.01 0.06 0.38 0.62 0.36 0.10 0.06 0.07 0.20 0.15 0.09 0.03 0.01 0.02 0.01 0.00 0.00 0.00 0.00 0.00 0.00 0.00 0.00 0.00 0.00 0.00 0.00
0.00 0.00 0.00 0.00 0.00 0.00 0.00 0.00 0.00 0.00 0.00 0.00 0.00 0.00 0.00 0.00 0.01 0.02 0.02 0.02 0.02 0.01 0.00 0.00 0.05 0.31 0.42 0.22 0.05 0.02 0.15 0.18 0.16 0.07 0.02 0.02 0.01 0.01 0.00 0.00 0.00 0.00 0.00 0.00 0.00 0.00 0.00 0.00 0.00
0.00 0.00 0.00 0.00 0.00 0.00 0.00 0.00 0.00 0.00 0.00 0.00 0.00 0.00 0.00 0.00 0.01 0.03 0.02 0.01 0.01 0.00 0.00 0.00 0.03 0.08 0.14 0.16 0.04 0.00 0.03 0.29 0.17 0.14 0.05 0.01 0.01 0.01 0.00 0.00 0.00 0.00 0.00 0.00 0.00 0.00 0.00 0.00 0.00
0.00 0.00 0.00 0.00 0.00 0.00 0.00 0.00 0.00 0.00 0.00 0.00 0.00 0.00 0.00 0.00 0.00 0.00 0.04 0.02 0.01 0.01 0.00 0.00 0.01 0.05 0.09 0.39 0.18 0.01 0.01 0.11 0.30 0.14 0.07 0.02 0.01 0.00 0.00 0.00 0.00 0.00 0.00 0.00 0.00 0.00 0.00 0.00 0.00
0.00 0.00 0.00 0.00 0.00 0.00 0.00 0.00 0.00 0.00 0.00 0.00 0.00 0.00 0.00 0.00 0.00 0.00 0.00 0.01 0.01 0.02 0.01 0.00 0.03 0.06 0.16 0.45 0.43 0.07 0.00 0.01 0.22 0.26 0.09 0.03 0.01 0.00 0.00 0.00 0.00 0.00 0.00 0.00 0.00 0.00 0.00 0.00 0.00
0.00 0.00 0.00 0.00 0.00 0.00 0.00 0.00 0.00 0.00 0.00 0.00 0.00 0.00 0.00 0.00 0.00 0.00 0.00 0.01 0.11 0.13 0.05 0.07 0.10 0.06 0.19 0.60 0.50 0.27 0.05 0.00 0.04 0.33 0.25 0.08 0.01 0.00 0.00 0.00 0.00 0.00 0.00 0.00 0.00 0.00 0.00 0.00 0.00
0.00 0.00 0.00 0.00 0.00 0.00 0.00 0.00 0.00 0.00 0.00 0.00 0.00 0.00 0.00 0.00 0.00 0.01 0.00 0.00 0.04 0.12 0.10 0.06 0.12 0.08 0.09 0.27 0.59 0.47 0.29 0.07 0.01 0.08 0.23 0.17 0.03 0.00 0.00 0.00 0.00 0.00 0.00 0.00 0.00 0.00 0.00 0.00 0.00
0.00 0.02 0.00 0.00 0.00 0.00 0.00 0.00 0.00 0.00 0.01 0.00 0.00 0.00 0.01 0.00 0.00 0.01 0.03 0.02 0.01 0.04 0.08 0.08 0.06 0.06 0.12 0.08 0.35 0.64 0.53 0.32 0.11 0.03 0.01 0.03 0.00 0.00 0.00 0.00 0.00 0.00 0.00 0.00 0.00 0.00 0.00 0.00 0.00
0.00 0.00 0.00 0.00 0.00 0.00 0.00 0.00 0.00 0.00 0.06 0.02 0.01 0.02 0.01 0.01 0.01 0.01 0.03 0.06 0.06 0.05 0.06 0.07 0.06 0.03 0.10 0.09 0.13 0.34 0.43 0.49 0.33 0.16 0.08 0.03 0.01 0.00 0.00 0.00 0.00 0.00 0.00 0.00 0.00 0.00 0.00 0.00 0.00
0.01 0.03 0.01 0.00 0.04 0.01 0.00 0.00 0.00 0.00 0.06 0.04 0.02 0.00 0.00 0.03 0.04 0.04 0.09 0.06 0.04 0.20 0.18 0.15 0.07 0.07 0.05 0.07 0.13 0.25 0.28 0.29 0.33 0.30 0.17 0.13 0.09 0.03 0.00 0.00 0.00 0.00 0.00 0.00 0.00 0.00 0.00 0.00 0.00
0.01 0.01 0.00 0.01 0.02 0.00 0.00 0.00 0.00 0.00 0.00 0.00 0.00 0.00 0.00 0.03 0.08 0.06 0.07 0.11 0.07 0.20 0.32 0.33 0.21 0.18 0.15 0.08 0.13 0.22 0.31 0.42 0.34 0.21 0.24 0.20 0.09 0.04 0.00 0.00 0.00 0.00 0.00 0.00 0.00 0.02 0.02 0.01 0.00
0.01 0.00 0.01 0.02 0.08 0.07 0.09 0.06 0.01 0.00 0.00 0.00 0.00 0.00 0.00 0.06 0.14 0.12 0.08 0.11 0.09 0.25 0.24 0.30 0.51 0.41 0.31 0.24 0.15 0.13 0.17 0.23 0.30 0.34 0.28 0.32 0.23 0.09 0.06 0.11 0.14 0.13 0.17 0.21 0.28 0.24 0.19 0.12 0.03
0.00 0.00 0.00 0.01 0.07 0.16 0.14 0.18 0.03 0.02 0.00 0.00 0.00 0.00 0.03 0.09 0.11 0.11 0.12 0.12 0.09 0.41 0.22 0.27 0.71 0.73 0.46 0.44 0.54 0.23 0.09 0.13 0.16 0.22 0.39 0.39 0.42 0.42 0.33 0.36 0.38 0.29 0.25 0.24 0.22 0.32 0.35 0.36 0.27
0.00 0.00 0.00 0.01 0.08 0.28 0.12 0.12 0.16 0.13 0.03 0.00 0.01 0.04 0.08 0.12 0.13 0.13 0.18 0.31 0.70 0.41 0.31 0.31 0.61 0.82 0.62 0.53 0.65 0.44 0.19 0.11 0.17 0.24 0.31 0.29 0.21 0.22 0.27 0.26 0.22 0.20 0.15 0.12 0.12 0.14 0.18 0.22 0.17
0.00 0.03 0.07 0.16 0.27 0.19 0.11 0.13 0.24 0.17 0.04 0.02 0.11 0.18 0.15 0.13 0.16 0.20 0.21 0.31 1.13 0.60 0.55 0.49 0.60 0.68 0.61 0.57 0.72 0.49 0.33 0.26 0.17 0.16 0.27 0.44 0.36 0.25 0.19 0.17 0.14 0.09 0.05 0.02 0.03 0.03 0.05 0.12 0.11
0.01 0.06 0.23 0.24 0.23 0.23 0.15 0.28 0.46 0.41 0.23 0.35 0.35 0.52 0.55 0.28 0.25 0.40 0.35 0.42 0.97 1.02 0.77 0.68 0.58 0.56 0.57 0.61 0.50 0.42 0.24 0.29 0.25 0.17 0.12 0.14 0.20 0.25 0.22 0.14 0.08 0.07 0.07 0.07 0.06 0.04 0.04 0.04 0.05
0.01 0.12 0.29 0.38 0.30 0.14 0.22 0.39 0.58 0.59 0.67 0.58 0.86 0.74 0.56 0.35 0.41 0.50 0.51 0.56 0.62 0.62 0.49 0.37 0.28 0.23 0.21 0.15 0.15 0.31 0.44 0.38 0.28 0.16 0.06 0.05 0.02 0.06 0.14 0.10 0.12 0.15 0.12 0.09 0.08 0.06 0.03 0.01 0.01
0.00 0.05 0.11 0.12 0.16 0.20 0.12 0.27 0.93 0.93 0.65 0.53 0.45 0.36 0.35 0.30 0.26 0.24 0.24 0.22 0.34 0.34 0.18 0.09 0.06 0.02 0.01 0.01 0.03 0.13 0.16 0.16 0.18 0.18 0.14 0.11 0.09 0.05 0.04 0.04 0.03 0.04 0.05 0.06 0.03 0.02 0.02 0.05 0.03
0.01 0.05 0.01 0.00 0.01 0.07 0.06 0.44 0.84 0.73 0.39 0.17 0.13 0.18 0.21 0.23 0.18 0.11 0.05 0.03 0.04 0.03 0.02 0.01 0.00 0.00 0.00 0.00 0.00 0.00 0.00 0.00 0.00 0.02 0.02 0.04 0.06 0.05 0.05 0.04 0.03 0.01 0.01 0.02 0.01 0.01 0.02 0.05 0.05
0.00 0.00 0.00 0.00 0.00 0.00 0.03 0.39 0.48 0.34 0.24 0.10 0.08 0.06 0.04 0.05 0.02 0.02 0.01 0.00 0.00 0.00 0.00 0.00 0.00 0.00 0.00 0.00 0.00 0.00 0.00 0.00 0.00 0.00 0.00 0.00 0.00 0.00 0.00 0.01 0.02 0.02 0.01 0.02 0.03 0.03 0.04 0.07 0.08